Location: New Paltz
(41.7500°N, 74.0833°W)
Time: 09:39:31
(UTC-05:00)

Daily predictions for brighter satellites

Satellite Brightness Start Highest point End
(mag) Time Altitude Azimuth Time Altitude Azimuth Time Altitude Azimuth
COSMO-SKYMED 1 4.3 16:52:52 10° ENE 16:55:08 14° E 16:57:25 10° ESE
SJ-12 4.3 16:52:45 10° SE 16:56:38 43° ENE 17:00:34 10° N
Cosmos 921 Rocket 3.9 16:55:59 10° SSE 16:59:39 29° E 17:03:25 10° NE
Meteor 1-18 Rocket 4.3 16:55:57 10° S 17:01:37 80° E 17:07:25 10° NNE
IDEFIX/ARIANE 42P 2.7 16:58:38 10° SSE 17:03:39 53° ENE 17:08:42 10° N
Genesis I 3.5 17:00:48 10° NW 17:04:44 74° WSW 17:08:36 10° SSE
Thor Agena Rocket 3.8 16:59:44 10° NNE 17:04:51 52° E 17:09:59 10° S
Abrixas 2.3 17:02:11 10° WNW 17:05:09 78° NNE 17:08:07 10° ESE
Okean 1 3.3 17:01:22 10° S 17:05:22 65° E 17:09:25 10° NNE
Cosmos 2251 Rocket 4.5 17:01:24 10° NNW 17:06:36 55° WSW 17:11:45 10° S
Intercosmos 25 4.3 17:04:12 10° NNE 17:06:39 20° ENE 17:09:15 10° SE
Cosmos 1238 Rocket 2.5 17:04:09 10° SSW 17:07:06 71° W 17:10:22 10° N
Timation 2 Rocket 4.3 17:00:20 10° NNW 17:07:07 59° ENE 17:13:53 10° SE
Cosmos 1833 Rocket 3.0 17:02:28 10° NNW 17:07:49 42° ENE 17:13:08 10° SE
Cosmos 1346 Rocket 3.0 17:05:00 10° S 17:08:44 48° E 17:12:29 10° NNE
Cosmos 1536 Rocket 3.6 17:04:42 10° S 17:09:09 81° E 17:13:39 10° N
USA 234 3.4 17:09:17 10° NE 17:15:49 68° SE 17:22:19 10° SW
Cosmos 2082 Rocket 2.2 17:11:35 10° NNW 17:17:11 58° ENE 17:22:47 10° SE
YAOGAN 1 2.5 17:14:57 10° SSE 17:19:13 66° ENE 17:23:32 10° N
PAYLOAD A 4.3 17:15:50 10° S 17:20:40 71° WSW 17:25:45 10° NNW
Cosmos 1500 3.1 17:20:42 10° N 17:24:33 83° E 17:28:25 10° S
CZ-2C R/B 2.5 17:21:39 10° SSE 17:26:42 88° ENE 17:31:53 10° NNW
Cosmos 1743 3.1 17:23:23 10° N 17:27:04 40° ENE 17:30:42 10° SSE
Timation 1 Rocket 4.4 17:21:34 10° SSW 17:27:27 65° ESE 17:33:22 10° NNE
Nadezhda 3 Rocket 4.0 17:23:33 10° S 17:29:40 63° E 17:35:52 10° NNE
NOSS 3-4 (A) 4.0 17:23:19 10° NNW 17:30:02 48° NE 17:37:07 10° ESE
NOSS 3-4 (C) 4.0 17:23:25 10° NNW 17:30:07 47° NE 17:37:13 10° ESE
Meteor 1-19 Rocket 4.3 17:33:50 10° S 17:39:30 59° E 17:45:16 10° NNE
SL-8 R/B 4.4 17:36:19 10° W 17:40:51 41° NNW 17:43:47 20° NE
Delta 2 Rocket 4.4 17:38:42 10° WSW 17:41:56 32° S 17:44:48 14° ESE
Cosmos 407 Rocket 4.2 17:38:32 10° N 17:43:02 30° ENE 17:47:32 10° ESE
SKYMED 2 3.9 17:39:26 10° NNE 17:43:32 45° E 17:47:41 10° S
Cosmos 1484 Rocket 2.7 17:41:35 10° SSE 17:45:13 53° ENE 17:48:52 10° N
Cosmos 2056 Rocket 3.9 17:40:36 10° S 17:45:38 43° ESE 17:49:18 17° NE
GRACE-2 3.7 17:44:54 10° S 17:47:39 71° E 17:49:49 15° N
ERBS 4.4 17:45:51 10° N 17:47:17 14° NNE 17:47:17 14° NNE
GRACE-1 3.7 17:45:19 10° S 17:48:05 73° E 17:50:18 15° N
SMAP 3.9 17:46:53 10° S 17:51:25 52° W 17:55:58 10° NNW
Cosmos 2369 Rocket 3.6 17:51:32 10° SE 17:54:58 19° ESE 17:54:58 19° ESE
Meteor 2-9 Rocket 4.2 17:50:15 10° N 17:55:31 51° ENE 18:00:40 10° SSE
Okean 2 4.0 17:52:36 10° SSE 17:56:22 34° E 17:57:06 32° ENE
Cosmos 1892 Rocket 4.1 17:54:05 10° SSE 17:58:00 34° E 17:58:40 32° ENE
Cosmos 1624 Rocket 4.0 17:53:19 10° S 17:58:25 61° ESE 18:02:04 19° NNE
NOAA 12 4.4 17:55:39 10° SE 18:00:34 42° ENE 18:05:30 10° N
Meteor 1-23 Rocket 4.3 17:56:36 10° S 18:02:09 57° E 18:07:33 11° NNE
Meteor 2-4 Rocket 3.5 17:58:19 10° S 18:03:37 67° E 18:08:55 10° NNE
Cosmos 1726 Rocket 3.8 17:59:40 10° N 18:03:57 44° ENE 18:08:13 10° SSE
Okean 1-7 Rocket 3.8 17:59:35 10° SSW 18:04:04 72° W 18:08:32 10° N
Cosmos 1371 Rocket 4.0 17:59:03 10° SSW 18:04:25 85° ESE 18:08:53 15° NNE
CZ-4 R/B 4.0 18:04:08 10° SSW 18:07:30 24° W 18:10:52 10° NW
Tiangong 1 0.9 18:06:19 10° W 18:09:19 69° N 18:09:19 69° N
Meteor 2-8 Rocket 4.4 18:03:59 10° S 18:09:55 60° E 18:15:56 10° NNE
ISS -1.0 18:09:20 10° NNW 18:10:48 15° N 18:10:48 15° N
MSX 4.4 18:06:33 10° S 18:12:11 58° W 18:17:53 10° NNW
Cosmos 1934 Rocket 3.9 18:06:12 10° N 18:12:25 72° E 18:18:43 10° SSE
BREEZE-M DEB (TANK) 4.3 18:10:08 10° WNW 18:15:18 30° N 18:15:38 30° N
NOSS 7 (H) 4.2 18:12:55 10° SSW 18:16:13 73° SE 18:16:13 73° SE
Cosmos 1340 3.9 18:16:55 10° SSE 18:18:57 28° SSE 18:18:57 28° SSE
Cosmos 1606 Rocket 3.5 18:19:02 10° N 18:23:32 87° E 18:28:00 10° S
METEOR-M 4.0 18:21:59 10° SSE 18:27:14 63° ENE 18:32:31 10° N
COSMO-SKYMED 1 3.3 18:28:03 14° N 18:31:36 52° WNW 18:35:49 10° SSW
Cosmos 1452 Rocket 3.8 18:29:28 10° S 18:33:52 46° SE 18:33:52 46° SE
Cosmos 1190 Rocket 4.0 18:29:46 10° NNW 18:35:02 82° WSW 18:40:14 10° SSE
GEOS 3 Rocket 3.6 18:36:10 57° NE 18:36:14 57° NE 18:41:15 10° NNW
Cosmos 1666 3.7 18:35:02 10° NNW 18:38:45 47° W 18:42:29 10° SSW
Cosmos 1025 Rocket 4.1 18:34:51 10° SSW 18:39:03 45° WNW 18:42:27 15° N
Cosmos 1153 Rocket 4.3 18:44:28 10° N 18:50:38 68° E 18:56:43 10° SSE
Cosmos 1605 Rocket 4.1 18:51:38 10° N 18:57:54 74° W 19:04:03 10° S
USA 234 4.0 18:56:14 32° NNE 18:58:36 43° NNW 19:04:40 10° W
CZ-3B DEB 4.1 18:55:42 10° WNW 19:01:13 37° N 19:04:31 31° NE
BREEZE M DEB (TANK) 4.4 19:10:13 10° W 19:13:17 25° WNW 19:13:17 25° WNW
BREEZE M DEB (TANK) 4.3 19:26:23 10° WNW 19:31:19 72° SSW 19:34:22 49° SE
Cosmos 2369 Rocket 3.4 19:33:18 10° SW 19:36:50 38° SW 19:36:50 38° SW
FALCON 9 R/B 3.6 19:34:53 10° W 19:49:07 46° SSW 19:49:07 46° SSW
